Flag for Germany Weather past 2 weeks in Zerbst/Anhalt, Saxony-Anhalt, Germany

Now
60 °F

Passing clouds.


Feels Like: 60 °F
Forecast: 51 / 63 °F
Wind: 2 mph from Southwest

Location: Magdeburg

Current Time: Sep 4, 2015 at 8:56:40 PM

Latest Report: Sep 4, 2015 at 8:00 PM


Visibility: 31 mi

Pressure: 29.88 "Hg

Humidity: 65%

Dew point: 47 °F

Location of Zerbst/AnhaltLocation

Historic Weather in Zerbst/Anhalt — Graph

°F

Zerbst/Anhalt temperature yesterday

Maximum temperature yesterday: 68 °F (at 4:00 PM)
Minimum temperature yesterday: 53 °F (at 4:00 AM)
Average temperature yesterday: 58 °F

Past Weeks' High & Low Weather Summary

 TemperatureHumidityPressure
High91 °F (Aug 31, 6:00 PM)99% (Aug 21, 2:00 AM)30.30 "Hg (Aug 21, 2:00 AM)
Low50 °F (Sep 4, 7:00 AM)30% (Aug 22, 4:00 PM)29.66 "Hg (Aug 24, 7:00 PM)
Average66 °F72%29.98 "Hg
* Reported Aug 20 8:00 PM — Sep 4 8:00 PM, Zerbst/Anhalt, Weather by CustomWeather, © 2015

Note: Actual official high and low records may vary slightly from our data, if they occured in-between our weather recording intervals... More about our weather records

Advertising

Zerbst/Anhalt weather history for previous 24 hours

 ConditionsComfort  
Time TempWeatherWind HumidityBarometerVisibility
8:00 PM
Fri, Sep 4
60 °FPassing clouds.2 mph65%29.88 "Hg31 mi
7:00 PM64 °FScattered clouds.3 mph53%29.88 "Hg31 mi
6:00 PM65 °FScattered clouds.3 mph48%29.87 "Hg31 mi
5:00 PM65 °FScattered clouds.6 mph49%29.88 "Hg31 mi
4:00 PM67 °FPartly sunny.5 mph44%29.90 "Hg28 mi
3:00 PM65 °FPartly sunny.5 mph53%29.92 "Hg25 mi
2:00 PM64 °FPartly sunny.2 mph57%29.92 "Hg19 mi
1:00 PM63 °FPartly sunny.2 mph65%29.93 "Hg19 mi
12:00 PM62 °FPartly sunny.2 mph61%29.94 "Hg19 mi
11:00 AM61 °FPartly sunny.2 mph68%29.95 "Hg12 mi
10:00 AM57 °FPartly sunny.1 mph78%29.95 "Hg11 mi
9:00 AM57 °FOvercast.1 mph76%29.93 "Hg10 mi
8:00 AM54 °FOvercast.1 mph85%29.93 "Hg9 mi
7:00 AM50 °FScattered clouds.1 mph97%29.93 "Hg5 mi
6:00 AM51 °FFog.1 mph97%29.92 "Hg3 mi
5:00 AM51 °FFog.1 mph99%29.92 "Hg2 mi
4:00 AM52 °FFog.2 mph96%29.93 "Hg2 mi
3:00 AM51 °FFog.2 mph96%29.93 "Hg4 mi
2:00 AM51 °FPassing clouds.1 mph95%29.94 "Hg5 mi
1:00 AM52 °FPassing clouds.1 mph95%29.93 "Hg7 mi
11:00 PM
Thu, Sep 3
54 °FPassing clouds.1 mph94%29.95 "Hg6 mi
10:00 PM55 °FPassing clouds.1 mph92%29.94 "Hg10 mi
9:00 PM56 °FPassing clouds.1 mph89%29.94 "Hg25 mi
8:00 PM59 °FPassing clouds.1 mph86%29.92 "Hg28 mi
Weather by CustomWeather, © 2015

See weather overviewHow to use our weather pages